TimeCDT,TemperatureF,Dew PointF,Humidity,Sea Level PressureIn,VisibilityMPH,Wind Direction,Wind SpeedMPH,Gust SpeedMPH,PrecipitationIn,Events,Conditions,WindDirDegrees,DateUTC
12:56 AM,50.0,34.0,54,30.01,10.0,WSW,4.6,-,N/A,,Clear,240,2012-09-20 05:56:00
1:56 AM,50.0,35.1,57,30.01,10.0,Calm,Calm,-,N/A,,Clear,0,2012-09-20 06:56:00
2:56 AM,46.0,35.1,66,30.03,10.0,WSW,4.6,-,N/A,,Clear,250,2012-09-20 07:56:00
3:56 AM,48.0,34.0,58,30.03,10.0,Calm,Calm,-,N/A,,Clear,0,2012-09-20 08:56:00
4:56 AM,46.0,35.1,66,30.03,10.0,Calm,Calm,-,N/A,,Clear,0,2012-09-20 09:56:00
5:56 AM,45.0,34.0,65,30.04,10.0,WSW,3.5,-,N/A,,Clear,250,2012-09-20 10:56:00
6:56 AM,44.1,34.0,68,30.06,10.0,West,3.5,-,N/A,,Clear,270,2012-09-20 11:56:00
7:56 AM,44.1,34.0,68,30.07,10.0,Calm,Calm,-,N/A,,Clear,0,2012-09-20 12:56:00
8:56 AM,50.0,35.1,57,30.07,10.0,West,3.5,-,N/A,,Clear,280,2012-09-20 13:56:00
9:56 AM,57.9,30.9,36,30.06,10.0,WNW,5.8,-,N/A,,Partly Cloudy,290,2012-09-20 14:56:00
10:56 AM,64.0,30.0,28,30.06,10.0,WNW,8.1,-,N/A,,Partly Cloudy,290,2012-09-20 15:56:00
11:56 AM,64.0,37.9,38,30.06,10.0,WNW,8.1,-,0.00,,Overcast,300,2012-09-20 16:56:00
12:56 PM,69.1,32.0,25,30.03,10.0,West,6.9,17.3,0.00,,Mostly Cloudy,280,2012-09-20 17:56:00
1:56 PM,70.0,32.0,25,30.01,10.0,NW,9.2,-,N/A,,Scattered Clouds,310,2012-09-20 18:56:00
3:56 PM,72.0,35.1,26,29.97,10.0,Variable,5.8,-,N/A,,Clear,0,2012-09-20 20:56:00
4:56 PM,72.0,34.0,25,29.96,10.0,Calm,Calm,-,N/A,,Clear,0,2012-09-20 21:56:00
5:56 PM,70.0,34.0,27,29.95,10.0,NE,4.6,-,N/A,,Clear,50,2012-09-20 22:56:00
6:56 PM,66.9,36.0,32,29.94,10.0,East,4.6,-,N/A,,Clear,80,2012-09-20 23:56:00
7:56 PM,63.0,37.9,40,29.95,10.0,East,4.6,-,N/A,,Partly Cloudy,100,2012-09-21 00:56:00
8:56 PM,62.1,39.0,43,29.96,10.0,ESE,3.5,-,N/A,,Mostly Cloudy,110,2012-09-21 01:56:00
9:56 PM,60.1,37.9,44,29.95,10.0,East,3.5,-,N/A,,Clear,100,2012-09-21 02:56:00
10:56 PM,57.9,39.0,49,29.94,10.0,SSE,3.5,-,N/A,,Clear,160,2012-09-21 03:56:00
11:56 PM,60.1,37.9,44,29.91,10.0,South,10.4,-,N/A,,Clear,170,2012-09-21 04:56:00